www.pogodaiklimat.ru

Погода и климат >> Архив погоды >> Россия >> Оренбургская область >> Беляевка


ПОГОДА в Беляевке

  • Прогноз погоды в Беляевке
  • Монитор погоды в Беляевке
  • Климат города

АРХИВ ПОГОДЫ в Беляевке

Время (UTC), дата Ветер
(напр.,м/с)
 
Видим.   Явления Облачность Т
(С)
Тd
(С)
f
(%)
Тe
(С)
Тes
(С)
Комфортность P
(гПа)
Po
(гПа)
Тmin
(С)
Tmax
(С)
R
(мм)
R24
(мм)
S
(см)
06 17.05 В 6 20 км ясно +15.1 -1.5 32 +14 +19 1025.8 1009.8
09 17.05 В 6-10
{14}
20 км ясно +18.0 -2.3 25 +17 +24 1024.1 1008.2
12 17.05 В 6
{13}
20 км 6/0
[Ci fib]
+19.0 -4.5 20 +18 +21 1023.2 1007.4
15 17.05 В 5 20 км 4/0
[Ci fib]
+16.6 -3.2 26 +16 +16 1023.2 1007.3 +19.2
18 17.05 В 3 10 км ясно +7.0 -2.4 51 +5 +5 1024.6 1008.1
21 17.05 В 2 10 км ясно +5.3 -3.0 55 +3 +3 1025.4 1008.8
00 18.05 В 2 20 км ясно +2.4 -2.6 70 -1 -1 1026.1 1009.3
03 18.05 В 2 20 км 9/0
[Ci fib]
+8.6 +0.1 55 +7 +10 1026.4 1010.0 +1.7
06 18.05 В 5 20 км 9/0
[Ci fib]
+16.6 -2.1 28 +16 +21 1026.2 1010.2
09 18.05 ЮВ 4
{12}
20 км 9/0
[Ci fib]
+19.6 -3.5 21 +20 +28 1025.0 1009.2
12 18.05 ЮВ 3 20 км 9/0
[Ci fib]
+20.3 -1.4 23 +21 +26 комфорт 1024.5 1008.7
15 18.05 ЮВ 3 20 км 8/0
[Ci fib]
+18.6 -0.8 27 +19 +19 1023.9 1008.1 +20.8
18 18.05 В 2 10 км ясно +9.6 +0.1 52 +8 +8 1025.1 1008.8
21 18.05 В 3 10 км ясно +5.6 +0.1 68 +3 +3 1025.6 1009.0
00 19.05 В 2 10 км 9/0
[Ci fib]
+6.4 +0.5 66 +4 +4 1025.7 1009.1
03 19.05 В 5 20 км 9/0
[Ci fib]
+12.0 +1.9 50 +10 +11 1025.1 1008.9 +5.4
06 19.05 ЮВ 5 20 км 8/0
[Ac trans Ci fib]
+20.1 +1.4 29 +20 +24 1024.1 1008.4
09 19.05 ЮВ 4 20 км 8/0
[Ac trans Ci fib]
+21.9 +0.4 24 +21 +28 комфорт 1023.0 1007.4
12 19.05 ЮВ 3 20 км 8/0
[Ac trans Ci fib]
+23.8 -0.6 20 +23 +27 комфорт 1021.4 1005.9
15 19.05 ЮВ 1 20 км 9/9 720 м
[Cb calv]
+22.1 +2.1 27 +22 +22 комфорт 1020.4 1004.8 +24.4
18 19.05 В 2
{10}
10 км 9/0
[Ac As]
+17.6 +4.4 42 +18 +18 1020.3 1004.5
21 19.05 В 2 10 км 9/0
[Ac As]
+12.5 +5.6 63 +12 +12 1019.9 1003.8
00 20.05 В 2 20 км 9/9 600 м
[Cb cap]
+12.0 +4.9 62 +11 +11 1019.2 1003.1
03 20.05 В 4 20 км 9/9 600 м
[Cb cap]
+15.1 +4.3 48 +14 +14 1018.4 1002.5 +11.6
06 20.05 В 4 20 км 9/0
[Ac trans Ci fib]
+21.1 +4.3 33 +21 +26 комфорт 1017.0 1001.4
09 20.05 Ю 5 20 км 9/0
[Ci fib]
+25.5 -0.6 18 +24 +31 комфорт 1015.5 1000.2
12 20.05 Ю 5
{10}
20 км 9/0
[Ci fib]
+25.7 +1.3 20 +24 +28 комфорт 1013.5 998.2
15 20.05 ЮВ 2 20 км 9/3 600 м
[Cb cap Ac trans Ci fib]
+22.6 +3.3 28 +22 +23 комфорт 1012.0 996.6 +26.2
18 20.05 В 2 10 км 9/9 630 м
[Cb cap]
+16.6 +6.6 52 +17 +17 1011.5 995.8
21 20.05 В 3 10 км 9/9 660 м
[Sc]
+15.1 +6.4 56 +15 +15 1010.0 994.2
00 21.05 В 3 20 км 10/0
[Ac As]
+13.2 +4.9 57 +12 +12 1008.1 992.2
03 21.05 В 2 20 км 10/0
[Ac As]
+17.4 +6.1 47 +18 +19 1005.9 990.3 +12.6
06 21.05 ЮВ 3 4000 м слабый дождь 10/8 660 м
[Frnb As op]
+16.8 +12.2 74 +17 +17 1004.0 988.4
09 21.05 Ю 7-12
{12}
10 км {дождь} 10/8 600 м
[Frnb As op]
+19.8 +14.0 69 +21 +21 комфорт 1001.3 985.9
12 21.05 Ю 8-14
{15}
20 км {дождь} ясно +25.8 +13.7 47 +28 +29 жарко 997.0 982.0
15 21.05 З 4
{15}
20 км в посл. час гроза {ливн. осадки} 4/4 630 м
[Cb cap]
+20.9 +17.7 82 +25 +25 комфорт 996.9 981.7 +25.9 4
18 21.05 ЮЗ 3 10 км {гроза, ливн. осадки} ясно +17.3 +14.4 83 +17 +17 998.5 983.1
21 21.05 ЮЗ 3 10 км ясно +15.7 +14.0 90 +15 +15 999.0 983.5
00 22.05 ЮЗ 4 20 км 6/0
[Ac As]
+13.4 +12.2 92 +12 +12 1000.0 984.3
03 22.05 ЮЗ 4 20 км 8/0
[Ac As]
+16.3 +12.7 79 +16 +17 999.9 984.4 +13.2
06 22.05 ЮЗ 3 20 км 8/0
[Ac As]
+20.4 +12.1 59 +23 +27 комфорт 999.4 984.1
09 22.05 ЮЗ 4 20 км 10/10
[Cb calv]
+22.0 +11.6 52 +24 +24 комфорт 999.2 984.0
12 22.05 Ю 4 20 км 10/10
[Cb cap]
+21.4 +10.6 50 +23 +23 комфорт 998.5 983.3
15 22.05 Ю 4
{11}
20 км 10/10 630 м
[Cb calv]
+17.7 +13.3 75 +17 +17 998.2 982.8 +22.3
18 22.05 Ю 4 10 км {дождь} 10/10 600 м
[Frnb Ns]
+14.8 +14.2 96 +14 +14 998.6 983.0
21 22.05 З 4 10 км {ливн. осадки} 6/6 630 м
[Cb calv]
+11.8 +11.6 99 +9 +9 998.4 982.6
00 23.05 З 6 10 км {ливн. осадки} 10/0
[As op]
+9.1 +8.8 98 +5 +5 999.6 983.6
03 23.05 З 6 10 км 10/0
[As op]
+9.0 +7.8 92 +5 +5 1001.8 985.8 +8.8 3
06 23.05 З 4 20 км 9/9 630 м
[Cb cap]
+11.3 +7.2 76 +9 +10 1004.0 988.1
09 23.05 З 5 20 км 9/9 600 м
[Cb cap]
+13.4 +6.4 63 +12 +12 1005.6 989.8
12 23.05 СЗ 5 20 км 9/9 630 м
[Cb cap]
+14.6 +3.7 48 +13 +14 1007.3 991.5
15 23.05 СЗ 4 20 км 9/9 630 м
[Cb cap]
+14.2 +1.5 42 +13 +13 1008.4 992.6 +15.4
18 23.05 СЗ 2 10 км ясно +8.7 +4.7 76 +7 +7 1011.5 995.4
21 23.05 З 2 10 км ясно +4.1 +2.9 92 +1 +1 1014.0 997.5
00 24.05 СЗ 2 20 км ясно +3.0 +2.0 93 -0 -0 1015.6 999.1
03 24.05 СЗ 3 20 км ясно +7.9 +2.6 69 +5 +8 1017.8 1001.5 +1.1

 

Местоположение метеостанции Беляевка (Оренбургская область, Россия): широта 51.42 долгота 56.42 высота над уровнем моря 131 м.

В архиве по умолчанию представлена погода в Беляевке за последнюю неделю. Архивные данные за месяц целиком и за предыдущие месяцы, начиная с января 2011 года, Вы можете получить, выбрав интересующий диапазон дат из раскрывающегося списка и нажав кнопку "Ввод!".

Внимание! Время в таблицах - всемирное. Для получения местного времени необходимо прибавить поправку, которая в Беляевке равна 5 ч.

Смотрите также архив погоды в соседних городах и на ближайших метеорологических станциях:

Погода в Кувандыке (Оренбургская область, Россия) (66 км)
Погода в Акбулаке (Оренбургская область, Россия) (71 км)
Погода в Мартуке (Актюбинская область, Казахстан) (75 км)
Погода в Оренбурге (Оренбургская область, Россия) (96 км)
Погода в Троицком Т (Оренбургская область, Россия) (101 км)
Погода в Родниковке (Актюбинская область, Казахстан) (101 км)
Погода в Соль-Илецк (Оренбургская область, Россия) (102 км)
Погода в Зилаире (Башкирия, Россия) (112 км)
Погода в Кос-Истеке (Актюбинская область, Казахстан) (129 км)
Погода в Акъяре (Башкирия, Россия) (131 км)

Пояснения к столбцам:

Ветер - указаны скорость ветра в м/с - средняя за 10 мин, порывы в срок и между сроками (в фигурных скобках) и направление, откуда дует ветер: С - северный, СВ - северо-восточный, В - восточный, ЮВ - юго-восточный, Ю - южный, ЮЗ - юго-западный, З - западный, СЗ - северо-западный.
Видимость - горизонтальная дальность видимости в метрах или километрах. При видимости от 1 до 10 км при отсутствии осадков обычно наблюдается дымка, при ухудшении видимости до 1 км и менее - туман. В сухую погоду видимость может ухудшаться дымом, пылью или мглою.
Явления - указаны атмосферные явления, наблюдавшиеся в срок или в последний час перед сроком; фигурными скобками обозначены явления, наблюдавшиеся между сроками (за 1-3 часа до срока); квадратными скобками обозначены град или гололедные отложения с указанием их диаметра в мм.
Облачность - указаны через наклонную черту общая и нижняя облачность в баллах и высота нижней границы облаков в метрах; квадратными скобками обозначены формы облаков: Ci - перистые, Cs - перисто-слоистые, Cc - перисто-кучевые, Ac - высококучевые, As - высокослоистые, Sc - слоисто-кучевые, Ns - слоисто-дождевые, Cu - кучевые, Cb - кучево-дождевые. Подробнее классификацию облаков см. в Атласе облаков (PDF).
T - Температура воздуха - температура, измеренная на высоте 2 м над землей.
Td - Температура точки росы - температура, при понижении до которой содержащийся в воздухе водяной пар достигнет насыщения.
f - Относительная влажность воздуха - влажноcть воздуха, измеренная на высоте 2 м над землей.
Te - Эффективная температура - температура, которую ощущает одетый по сезону человек в тени. Характеристика душности погоды. При расчете учитывается влияние влажности воздуха и скорости ветра на теплоощущения человека.
Tes - Эффективная температура на солнце - температура, которую ощущает человек, с поправкой на солнечный нагрев. Характеристика знойности погоды. Зависит от высоты солнца над горизонтом, облачности и скорости ветра. Ночью, в пасмурную погоду, а также при ветре 12 м/с и более поправка равна нулю.
P - Атмосферное давление - приведенное к уровню моря атмосферное давление.
Po - Атмосферное давление - измеренное на уровне метеостанции атмосферное давление.
Tmin - Минимальная температура - минимум температуры воздуха на высоте 2 м над землей.
Tmax - Максимальная температура - максимум температуры воздуха на высоте 2 м над землей.
R - Количество осадков - Количество выпавших осадков за период времени, мм. При наведении курсора мыши на число - период времени, за который выпало указанное количество осадков.
R24 - Количество осадков - Количество выпавших осадков за 24 часа, мм.
S - Снежный покров - Высота снежного покрова, см. При наведении курсора мыши на число - состояние снежного покрова и степень покрытия местности в баллах.